Powrót do katalogu

ARIANE 2 DEB

AktywnyHEO
NORAD 33584·DEBRIS·🇫🇷 France

Wystrzelony Apr 2, 1989 z Guiana Space Centre

Loading…

Następne Przeloty (najbliższe 24 godziny)

TLE

ŚwieżeSource: Space-Track

Epoka: Sep 12, 2026, 10:16 UTC

1 33584U 89027E   26255.42800322  .00000854  00000-0  10768-2 0  9991
2 33584   5.9792 335.8045 6045206 132.0823 298.1349  3.85577569170084

Śledź ARIANE 2 DEB w czasie rzeczywistym z AllMySat

Download on the App Store